User: anonymous   Login
Location: Eppenbrunn
(49.1158°N, 7.5601°E)
Time: 10:24:25
(UTC+00:00)
Language:

Envisat - Orbit

View from above orbital plane
View from above orbital plane
View from above satellite
View from above satellite

Ground track
Ground track

The orbit data is extracted from the following two-line orbital elements,

1 27386U 02009A   21267.94490413  .00000048  00000-0  29470-4 0  9997
2 27386  98.1570 256.9567 0001225  86.1580 327.4435 14.38043342 25306
Epoch (UTC): 24 September 2021 22:40:39
Eccentricity: 0.0001225
inclination: 98.1570°
perigee height: 764 km
apogee height: 766 km
right ascension of ascending node: 256.9567°
argument of perigee: 86.1580°
revolutions per day: 14.38043342
mean anomaly at epoch: 327.4435°
orbit number at epoch: 2530

The dashed part of the orbit path shows where the satellite is in the earth's shadow,  

DLR